Boulder Muni, Boulder, CO, CO

10:07 AM MDT on October 23, 2019 (GMT -0600)
Boulder Muni, Boulder, CO

Weather History for KBDU - August, 2019

Change the Weather History Date:

Friday, August 2, 2019

  Actual Average Record
Temperature  
Mean Temperature 73 °F -  
Max Temperature 86 °F - 95 °F (2013)
Min Temperature 60 °F - 53 °F (2014)
Degree Days  
Heating Degree Days 0    
Month to date heating degree days  
Cooling Degree Days 8    
Month to date cooling degree days  
Growing Degree Days 23 (Base 50)    
Moisture  
Dew Point 57 °F    
Average Humidity 63    
Maximum Humidity 100    
Minimum Humidity 25    
Precipitation  
Precipitation 0.00 in - 0.00 in (2019)
Snow  
Snow 0.00 in - - ()
Snow Depth -    
Sea Level Pressure  
Sea Level Pressure 30.23 in    
Wind  
Wind Speed 2 mph (West)    
Max Wind Speed 12 mph    
Max Gust Speed 24 mph    
Visibility 9 miles    
Events Rain , Thunderstorm    
T = Trace of Precipitation, MM = Missing Value Source: NWS Daily Summary

Daily Weather History Graph

Daily Weather History Graph

Search for Another Location

Airport or City:

Astronomy

Aug. 02, 2019 Rise Set
Actual Time 6:00 AM MDT 8:13 PM MDT
Civil Twilight 5:29 AM MDT 8:43 PM MDT
Nautical Twilight 4:52 AM MDT 9:21 PM MDT
Astronomical Twilight 4:11 AM MDT 10:01 PM MDT
Moon 7:42 AM MDT (8/2) 9:44 PM MDT (8/2)
Length of Visible Light 15h 14m
Length of Day
14h 13m
Waxing Crescent, 4% of the Moon is Illuminated
Aug 2
Waxing Crescent
Aug 7
First Quarter
Aug 15
Full
Aug 23
Last Quarter
Aug 30
New

Hourly Weather History & Observations

Time (MDT) Temp. Heat Index Dew Point Humidity Pressure Visibility Wind Dir Wind Speed Gust Speed Precip Events Conditions
12:12 AM 64.4 °F - 64.4 °F 100% 30.25 in 7.0 mi Calm Calm - N/A   Overcast
12:30 AM 64.4 °F - 64.4 °F 100% 30.24 in 7.0 mi Calm Calm - N/A   Overcast
12:54 AM 64.4 °F - 64.4 °F 100% 30.24 in 7.0 mi Calm Calm - N/A   Overcast
1:11 AM 64.4 °F - 64.4 °F 100% 30.24 in 7.0 mi WNW 3.5 mph - N/A   Overcast
1:29 AM 64.4 °F - 62.6 °F 94% 30.22 in 7.0 mi Calm Calm - N/A   Overcast
1:53 AM 64.4 °F - 62.6 °F 94% 30.22 in 7.0 mi Calm Calm - N/A   Scattered Clouds
2:12 AM 62.6 °F - 62.6 °F 100% 30.22 in 7.0 mi NE 3.5 mph - N/A   Mostly Cloudy
2:30 AM 64.4 °F - 62.6 °F 94% 30.21 in 7.0 mi Calm Calm - N/A   Overcast
2:48 AM 62.6 °F - 62.6 °F 100% 30.21 in 5.0 mi Calm Calm - N/A   Overcast
3:12 AM 64.4 °F - 62.6 °F 94% 30.21 in 7.0 mi Calm Calm - N/A   Mostly Cloudy
3:30 AM 62.6 °F - 62.6 °F 100% 30.20 in 5.0 mi Calm Calm - N/A   Overcast
3:48 AM 62.6 °F - 62.6 °F 100% 30.20 in 5.0 mi Calm Calm - N/A   Overcast
4:12 AM 62.6 °F - 62.6 °F 100% 30.20 in 7.0 mi Calm Calm - N/A   Mostly Cloudy
4:30 AM 62.6 °F - 62.6 °F 100% 30.20 in 5.0 mi Calm Calm - N/A   Mostly Cloudy
4:48 AM 62.6 °F - 62.6 °F 100% 30.20 in 10.0 mi Calm Calm - N/A   Mostly Cloudy
5:12 AM 60.8 °F - 60.8 °F 100% 30.20 in 10.0 mi WSW 3.5 mph - N/A   Scattered Clouds
5:30 AM 60.8 °F - 60.8 °F 100% 30.21 in 10.0 mi SW 3.5 mph - N/A   Clear
5:48 AM 60.8 °F - 59.0 °F 94% 30.21 in 10.0 mi Calm Calm - N/A   Clear
6:13 AM 60.8 °F - 59.0 °F 94% 30.21 in 10.0 mi SSW 3.5 mph - N/A   Clear
6:31 AM 60.8 °F - 59.0 °F 94% 30.21 in 10.0 mi South 3.5 mph - N/A   Clear
6:49 AM 62.6 °F - 60.8 °F 94% 30.21 in 10.0 mi South 4.6 mph - N/A   Clear
7:12 AM 64.4 °F - 60.8 °F 88% 30.21 in 10.0 mi Calm Calm - N/A   Clear
7:30 AM 64.4 °F - 60.8 °F 88% 30.22 in 10.0 mi Calm Calm - N/A   Clear
7:48 AM 66.2 °F - 62.6 °F 88% 30.22 in 10.0 mi Calm Calm - N/A   Clear
8:12 AM 68.0 °F - 60.8 °F 78% 30.22 in 10.0 mi Calm Calm - N/A   Clear
8:30 AM 69.8 °F - 60.8 °F 73% 30.22 in 10.0 mi SE 3.5 mph - N/A   Clear
8:48 AM 71.6 °F - 62.6 °F 73% 30.22 in 10.0 mi Calm Calm - N/A   Clear
9:12 AM 73.4 °F - 60.8 °F 65% 30.22 in 10.0 mi East 3.5 mph - N/A   Clear
9:30 AM 75.2 °F - 62.6 °F 65% 30.24 in 10.0 mi ENE 3.5 mph - N/A   Clear
9:48 AM 75.2 °F - 60.8 °F 61% 30.24 in 10.0 mi ESE 3.5 mph - N/A   Clear
10:12 AM 77.0 °F - 55.4 °F 47% 30.25 in 10.0 mi East 4.6 mph - N/A   Clear
10:30 AM 78.8 °F - 55.4 °F 44% 30.24 in 10.0 mi Calm Calm - N/A   Clear
11:13 AM 80.6 °F 80.5 °F 55.4 °F 42% 30.25 in 10.0 mi Calm Calm - N/A   Clear
11:31 AM 82.4 °F 81.4 °F 53.6 °F 37% 30.25 in 10.0 mi ENE 5.8 mph - N/A   Clear
11:49 AM 82.4 °F - 51.8 °F 35% 30.25 in 10.0 mi ENE 8.1 mph - N/A   Clear
12:12 PM 82.4 °F - 50.0 °F 32% 30.24 in 10.0 mi Calm Calm - N/A   Clear
12:30 PM 82.4 °F - 50.0 °F 32% 30.24 in 10.0 mi SE 4.6 mph - N/A   Clear
12:54 PM 84.2 °F - 51.8 °F 33% 30.23 in 10.0 mi ESE 6.9 mph - N/A   Clear
1:12 PM 84.2 °F - 51.8 °F 33% 30.23 in 10.0 mi ESE 4.6 mph - N/A   Clear
1:30 PM 84.2 °F - 51.8 °F 33% 30.22 in 10.0 mi East 4.6 mph - N/A   Clear
1:53 PM 86.0 °F - 50.0 °F 29% 30.22 in 10.0 mi ESE 3.5 mph - N/A   Scattered Clouds
2:12 PM 86.0 °F - 51.8 °F 31% 30.21 in 10.0 mi NNW 4.6 mph - N/A   Clear
2:30 PM 86.0 °F - 50.0 °F 29% 30.21 in 10.0 mi NW 5.8 mph - N/A   Clear
2:54 PM 86.0 °F - 48.2 °F 27% 30.21 in 10.0 mi NE 3.5 mph - N/A   Clear
3:12 PM 84.2 °F - 48.2 °F 29% 30.21 in 10.0 mi Calm Calm - N/A   Clear
3:30 PM 86.0 °F - 46.4 °F 25% 30.21 in 10.0 mi Calm Calm - N/A   Scattered Clouds
3:54 PM 84.2 °F - 50.0 °F 30% 30.22 in 10.0 mi North 4.6 mph - N/A Thunderstorm Mostly Cloudy
4:12 PM 73.4 °F - 55.4 °F 53% 30.22 in 10.0 mi West 10.4 mph 24.2 mph N/A Rain , Thunderstorm Rain
4:30 PM 77.0 °F - 59.0 °F 54% 30.21 in 10.0 mi West 8.1 mph - N/A Rain Light Rain
4:54 PM 78.8 °F - 55.4 °F 44% 30.21 in 10.0 mi West 8.1 mph - N/A   Clear
5:12 PM 82.4 °F - 51.8 °F 35% 30.21 in 10.0 mi West 9.2 mph - N/A   Clear
5:30 PM 80.6 °F 80.3 °F 53.6 °F 39% 30.20 in 10.0 mi West 6.9 mph - N/A   Clear
5:54 PM 80.6 °F 80.5 °F 55.4 °F 42% 30.21 in 10.0 mi WNW 5.8 mph - N/A   Scattered Clouds
6:14 PM 80.6 °F 80.8 °F 57.2 °F 45% 30.21 in 10.0 mi WNW 5.8 mph - N/A   Scattered Clouds
6:32 PM 80.6 °F 80.5 °F 55.4 °F 42% 30.22 in 10.0 mi NNW 11.5 mph - N/A   Scattered Clouds
6:50 PM 77.0 °F - 51.8 °F 41% 30.22 in 10.0 mi NNW 11.5 mph 19.6 mph N/A   Mostly Cloudy
7:12 PM 77.0 °F - 50.0 °F 39% 30.21 in 10.0 mi NW 10.4 mph - N/A   Scattered Clouds
7:53 PM 75.2 °F - 51.8 °F 44% 30.22 in 10.0 mi Calm Calm - N/A   Clear
8:12 PM 73.4 °F - 51.8 °F 47% 30.24 in 10.0 mi West 3.5 mph - N/A   Clear
8:30 PM 75.2 °F - 53.6 °F 47% 30.24 in 10.0 mi Calm Calm - N/A   Clear
8:48 PM 73.4 °F - 53.6 °F 50% 30.24 in 10.0 mi West 4.6 mph - N/A   Clear
9:12 PM 73.4 °F - 53.6 °F 50% 30.25 in 10.0 mi SSE 3.5 mph - N/A   Clear
9:30 PM 71.6 °F - 53.6 °F 53% 30.26 in 10.0 mi SW 4.6 mph - N/A   Clear
9:48 PM 69.8 °F - 55.4 °F 60% 30.27 in 10.0 mi West 4.6 mph - N/A   Clear
10:12 PM 71.6 °F - 53.6 °F 53% 30.27 in 10.0 mi SW 3.5 mph - N/A   Clear
10:30 PM 71.6 °F - 51.8 °F 50% 30.27 in 10.0 mi SW 3.5 mph - N/A   Scattered Clouds
10:48 PM 69.8 °F - 53.6 °F 56% 30.28 in 10.0 mi Calm Calm - N/A   Scattered Clouds
11:12 PM 66.2 °F - 55.4 °F 68% 30.29 in 10.0 mi NNW 3.5 mph - N/A   Mostly Cloudy
11:30 PM 68.0 °F - 55.4 °F 64% 30.29 in 10.0 mi Calm Calm - N/A   Overcast
11:53 PM 68.0 °F - 55.4 °F 64% 30.29 in 10.0 mi Calm Calm - N/A   Scattered Clouds